When you browse on this site, cookies collect data to enhance your experience and personalize the content and advertising you see.
Visit our Privacy Policy to learn more. By continuing to use the site, you agree to this use of cookies and data.
  • în România
  • Lista ţărilor
  • Pe 7 zile
  • Temperatura apei
  • Hartă satelitară
  • Meteo pe hartă
  • Widget-uri
  • user-avatar
    Intrare

    Meteo pe oră la Limay

    Astăzi, 20 Aprilie, Sâmbătă

    Timp Temperatura Precipitaţii Vânt Presiune Umiditate
    00:00 +13°C° 0 mm 3 m/s 758 mmHg 77%
    01:00 +13°C° 0 mm 3 m/s 757 mmHg 77%
    02:00 +12°C° 0 mm 3 m/s 757 mmHg 78%
    03:00 +12°C° 0 mm 3 m/s 757 mmHg 78%
    04:00 +12°C° 0 mm 3 m/s 757 mmHg 79%
    05:00 +13°C° 0 mm 2 m/s 757 mmHg 80%
    06:00 +13°C° 0 mm 2 m/s 758 mmHg 79%
    07:00 +15°C° 0 mm 2 m/s 758 mmHg 75%
    08:00 +17°C° 0 mm 3 m/s 758 mmHg 70%
    09:00 +19°C° 0 mm 3 m/s 758 mmHg 66%
    10:00 +21°C° 0 mm 4 m/s 758 mmHg 58%
    11:00 +22°C° 0 mm 4 m/s 758 mmHg 49%
    12:00 +25°C° 0 mm 5 m/s 758 mmHg 41%
    13:00 +25°C° 0 mm 5 m/s 757 mmHg 41%
    14:00 +25°C° 0 mm 5 m/s 757 mmHg 41%
    15:00 +25°C° 0 mm 5 m/s 757 mmHg 41%
    16:00 +23°C° 0 mm 4 m/s 756 mmHg 47%
    17:00 +21°C° 0 mm 4 m/s 756 mmHg 53%
    18:00 +20°C° 0 mm 3 m/s 756 mmHg 60%
    19:00 +19°C° 0 mm 3 m/s 756 mmHg 62%
    20:00 +18°C° 0 mm 3 m/s 756 mmHg 65%
    21:00 +16°C° 0 mm 3 m/s 756 mmHg 67%
    22:00 +16°C° 0 mm 3 m/s 756 mmHg 70%
    23:00 +14°C° 0 mm 3 m/s 756 mmHg 73%

    Mâine, 21 Aprilie, Duminică

    Timp Temperatura Precipitaţii Vânt Presiune Umiditate
    00:00 +13°C° 0 mm 3 m/s 756 mmHg 75%
    01:00 +14°C° 0 mm 2 m/s 755 mmHg 77%
    02:00 +13°C° 0 mm 2 m/s 755 mmHg 79%
    03:00 +13°C° 0 mm 2 m/s 754 mmHg 80%
    04:00 +13°C° 0 mm 2 m/s 754 mmHg 80%
    05:00 +13°C° 0 mm 2 m/s 754 mmHg 79%
    06:00 +13°C° 0 mm 2 m/s 754 mmHg 79%
    07:00 +15°C° 0 mm 2 m/s 753 mmHg 71%
    08:00 +17°C° 0 mm 2 m/s 753 mmHg 64%
    09:00 +19°C° 0 mm 3 m/s 753 mmHg 56%
    10:00 +20°C° 0 mm 3 m/s 753 mmHg 51%
    11:00 +21°C° 0 mm 3 m/s 752 mmHg 45%
    12:00 +24°C° 0 mm 3 m/s 752 mmHg 40%
    13:00 +23°C° 0 mm 4 m/s 751 mmHg 40%
    14:00 +23°C° 0 mm 4 m/s 751 mmHg 41%
    15:00 +23°C° 0 mm 4 m/s 750 mmHg 41%
    16:00 +22°C° 0 mm 3 m/s 750 mmHg 46%
    17:00 +21°C° 0 mm 3 m/s 749 mmHg 52%
    18:00 +20°C° 0 mm 3 m/s 749 mmHg 57%
    19:00 +18°C° 0 mm 2 m/s 749 mmHg 58%
    20:00 +17°C° 0 mm 2 m/s 749 mmHg 59%
    21:00 +16°C° 0 mm 2 m/s 749 mmHg 59%
    22:00 +15°C° 0 mm 2 m/s 748 mmHg 62%
    23:00 +14°C° 0 mm 2 m/s 748 mmHg 64%

    Poimâine, 22 Aprilie, Luni

    Timp Temperatura Precipitaţii Vânt Presiune Umiditate
    00:00 +14°C° 0 mm 1 m/s 747 mmHg 67%
    01:00 +13°C° 0 mm 2 m/s 747 mmHg 68%
    02:00 +13°C° 0 mm 2 m/s 746 mmHg 69%
    03:00 +13°C° 0 mm 2 m/s 745 mmHg 70%
    04:00 +13°C° 0 mm 2 m/s 745 mmHg 72%
    05:00 +13°C° 0 mm 2 m/s 745 mmHg 74%
    06:00 +12°C° 0 mm 2 m/s 744 mmHg 76%
    07:00 +14°C° 0 mm 2 m/s 744 mmHg 72%
    08:00 +16°C° 0 mm 2 m/s 744 mmHg 68%
    09:00 +18°C° 0 mm 2 m/s 743 mmHg 64%
    10:00 +19°C° 0 mm 2 m/s 743 mmHg 61%
    11:00 +21°C° 0 mm 2 m/s 742 mmHg 57%
    12:00 +22°C° 0 mm 3 m/s 742 mmHg 53%
    13:00 +22°C° 0 mm 3 m/s 741 mmHg 52%
    14:00 +24°C° 0 mm 2 m/s 741 mmHg 50%
    15:00 +24°C° 0 mm 2 m/s 740 mmHg 48%
    16:00 +23°C° 0 mm 2 m/s 740 mmHg 52%
    17:00 +22°C° 0 mm 1 m/s 739 mmHg 56%
    18:00 +21°C° 0 mm 1 m/s 739 mmHg 60%
    19:00 +20°C° 0 mm 1 m/s 739 mmHg 63%
    20:00 +19°C° 0 mm 1 m/s 739 mmHg 67%
    21:00 +16°C° 0 mm 1 m/s 739 mmHg 71%
    22:00 +16°C° 0 mm 1 m/s 738 mmHg 74%
    23:00 +15°C° 0 mm 1 m/s 738 mmHg 77%

    23 Aprilie, Marţi

    Timp Temperatura Precipitaţii Vânt Presiune Umiditate
    00:00 +15°C° 0 mm 1 m/s 738 mmHg 81%
    01:00 +14°C° 0 mm 1 m/s 737 mmHg 83%
    02:00 +14°C° 0 mm 1 m/s 737 mmHg 85%
    03:00 +13°C° 0 mm 1 m/s 737 mmHg 87%
    04:00 +13°C° 0 mm 1 m/s 737 mmHg 87%
    05:00 +13°C° 0 mm 1 m/s 737 mmHg 87%
    06:00 +13°C° 0 mm 2 m/s 737 mmHg 86%
    07:00 +15°C° 0 mm 1 m/s 737 mmHg 80%
    08:00 +18°C° 0 mm 1 m/s 737 mmHg 73%
    09:00 +19°C° 0 mm 1 m/s 737 mmHg 66%
    10:00 +21°C° 0 mm 1 m/s 736 mmHg 62%
    11:00 +22°C° 0 mm 1 m/s 736 mmHg 59%
    12:00 +23°C° 0 mm 1 m/s 736 mmHg 55%
    13:00 +23°C° 0.2 mm 1 m/s 736 mmHg 55%
    14:00 +23°C° 0.2 mm 1 m/s 735 mmHg 55%
    15:00 +23°C° 0.2 mm 1 m/s 735 mmHg 54%
    16:00 +22°C° 0.1 mm 1 m/s 735 mmHg 60%
    17:00 +21°C° 0.1 mm 1 m/s 735 mmHg 65%
    18:00 +20°C° 0.1 mm 1 m/s 734 mmHg 70%
    19:00 +19°C° 0.1 mm 1 m/s 735 mmHg 73%
    20:00 +18°C° 0.1 mm 1 m/s 735 mmHg 76%
    21:00 +16°C° 0.1 mm 1 m/s 735 mmHg 78%
    22:00 +16°C° 0.4 mm 1 m/s 735 mmHg 80%
    23:00 +16°C° 0.4 mm 1 m/s 735 mmHg 82%

    24 Aprilie, Miercuri

    Timp Temperatura Precipitaţii Vânt Presiune Umiditate
    00:00 +15°C° 0.4 mm 1 m/s 735 mmHg 84%
    01:00 +15°C° 0.1 mm 2 m/s 735 mmHg 86%
    02:00 +14°C° 0.1 mm 2 m/s 735 mmHg 88%
    03:00 +14°C° 0.1 mm 2 m/s 735 mmHg 90%
    04:00 +13°C° 0.5 mm 3 m/s 735 mmHg 91%
    05:00 +13°C° 0.5 mm 4 m/s 736 mmHg 91%
    06:00 +13°C° 0.5 mm 5 m/s 736 mmHg 92%
    07:00 +13°C° 0.6 mm 5 m/s 737 mmHg 88%
    08:00 +13°C° 0.6 mm 5 m/s 737 mmHg 84%
    09:00 +13°C° 0.6 mm 5 m/s 738 mmHg 81%
    10:00 +14°C° 0.2 mm 5 m/s 738 mmHg 76%
    11:00 +14°C° 0.2 mm 5 m/s 738 mmHg 71%
    12:00 +15°C° 0.2 mm 6 m/s 739 mmHg 65%
    13:00 +14°C° 0.3 mm 6 m/s 739 mmHg 67%
    14:00 +14°C° 0.3 mm 5 m/s 738 mmHg 70%
    15:00 +13°C° 0.3 mm 5 m/s 738 mmHg 72%
    16:00 +13°C° 0.1 mm 5 m/s 739 mmHg 72%
    17:00 +13°C° 0.1 mm 5 m/s 739 mmHg 72%
    18:00 +12°C° 0.1 mm 5 m/s 739 mmHg 72%
    19:00 +12°C° 0 mm 5 m/s 739 mmHg 70%
    20:00 +12°C° 0 mm 5 m/s 739 mmHg 69%
    21:00 +12°C° 0 mm 5 m/s 739 mmHg 68%
    22:00 +10°C° 0.2 mm 5 m/s 739 mmHg 71%
    23:00 +10°C° 0.2 mm 6 m/s 739 mmHg 74%

    25 Aprilie, Joi

    Timp Temperatura Precipitaţii Vânt Presiune Umiditate
    00:00 +10°C° 0.2 mm 6 m/s 739 mmHg 78%
    01:00 +9°C° 0.5 mm 6 m/s 739 mmHg 81%
    02:00 +9°C° 0.5 mm 6 m/s 739 mmHg 84%
    03:00 +8°C° 0.5 mm 6 m/s 740 mmHg 87%
    04:00 +8°C° 0 mm 6 m/s 740 mmHg 86%
    05:00 +8°C° 0 mm 6 m/s 740 mmHg 85%
    06:00 +8°C° 0 mm 6 m/s 740 mmHg 84%
    07:00 +8°C° 0.1 mm 6 m/s 741 mmHg 82%
    08:00 +9°C° 0.1 mm 7 m/s 741 mmHg 80%
    09:00 +10°C° 0.1 mm 7 m/s 741 mmHg 78%
    10:00 +11°C° 0.3 mm 8 m/s 741 mmHg 73%
    11:00 +11°C° 0.3 mm 8 m/s 741 mmHg 69%
    12:00 +12°C° 0.3 mm 8 m/s 742 mmHg 65%
    13:00 +12°C° 0.3 mm 8 m/s 742 mmHg 64%
    14:00 +12°C° 0.3 mm 7 m/s 742 mmHg 62%
    15:00 +12°C° 0.3 mm 7 m/s 742 mmHg 61%
    16:00 +13°C° 0.4 mm 6 m/s 742 mmHg 66%
    17:00 +12°C° 0.4 mm 5 m/s 743 mmHg 70%
    18:00 +11°C° 0.4 mm 4 m/s 743 mmHg 75%
    19:00 +10°C° 0.2 mm 4 m/s 743 mmHg 78%
    20:00 +8°C° 0.2 mm 5 m/s 744 mmHg 81%
    21:00 +7°C° 0.2 mm 5 m/s 745 mmHg 85%
    22:00 +7°C° 0.1 mm 5 m/s 745 mmHg 85%
    23:00 +7°C° 0.1 mm 5 m/s 745 mmHg 86%
    Arată mai mult